Weather History for Laramie, WY

Change the Weather History Date:

Thursday, April 4, 2013

  Actual Average Record
Temperature  
Mean Temperature 43 °F 35 °F  
Max Temperature 60 °F 48 °F 67 °F (1959)
Min Temperature 26 °F 22 °F -8 °F (1968)
Degree Days  
Heating Degree Days 22 30  
Month to date heating degree days 106 122  
Since 1 July heating degree days 7071 7357  
Cooling Degree Days 0 0  
Month to date cooling degree days 0 0  
Year to date cooling degree days 0 0  
Moisture  
Dew Point 23 °F    
Average Humidity 52    
Maximum Humidity 85    
Minimum Humidity 19    
Precipitation  
Precipitation 0.00 in 0.02 in 0.29 in (2009)
Month to date precipitation 0.01 0.09  
Year to date precipitation 0.92 1.28  
Sea Level Pressure  
Sea Level Pressure 29.99 in    
Wind  
Wind Speed 10 mph (SW)    
Max Wind Speed 24 mph    
Max Gust Speed 29 mph    
Visibility 10 miles    
Events      
T = Trace of Precipitation, MM = Missing Value Source: NWS Daily Summary

Daily Weather History Graph

Daily Weather History Graph

Search for Another Location

Airport:

Trip Planner

Search our weather history database for the weather conditions in past years. The results will help you decide how hot, cold, wet, or windy it might be!

Date:

Astronomy

Apr. 04, 2013 Rise Set
Actual Time 6:40 AM MDT 7:31 PM MDT
Civil Twilight 6:12 AM MDT 7:59 PM MDT
Nautical Twilight 5:39 AM MDT 8:32 PM MDT
Astronomical Twilight 5:04 AM MDT 9:07 PM MDT
Moon 3:12 AM MDT (4/4) 1:49 PM MDT (4/4)
Length of Visible Light 13h 47m
Length of Day
12h 51m
Waning Crescent, 33% of the Moon is Illuminated
Apr 4
Waning Crescent
Apr 10
New
Apr 18
First Quarter
Apr 25
Full
May 2
Last Quarter

Hourly Weather History & Observations

Time (MDT) Temp. Windchill Dew Point Humidity Pressure Visibility Wind Dir Wind Speed Gust Speed Precip Events Conditions
12:53 AM 30.9 °F 24.3 °F 25.0 °F 79% 30.06 in - SE 6.9 mph - N/A   Mostly Cloudy
1:53 AM 30.9 °F 25.2 °F 26.1 °F 82% 30.05 in 10.0 mi SE 5.8 mph - N/A   Scattered Clouds
2:53 AM 28.9 °F - 24.1 °F 82% 30.04 in 10.0 mi Calm Calm - N/A   Clear
3:53 AM 28.9 °F 21.1 °F 24.1 °F 82% 30.04 in - SSW 8.1 mph - N/A   Clear
4:53 AM 28.0 °F 20.8 °F 24.1 °F 85% 30.04 in 10.0 mi SSW 6.9 mph - N/A   Clear
5:53 AM 28.0 °F 19.3 °F 24.1 °F 85% 30.06 in 10.0 mi WSW 9.2 mph - N/A   Clear
6:53 AM 32.0 °F 22.5 °F 26.1 °F 79% 30.07 in 10.0 mi SW 12.7 mph - N/A   Clear
7:53 AM 36.0 °F 29.6 °F 28.9 °F 76% 30.10 in - SSW 8.1 mph - N/A   Clear
8:53 AM 42.1 °F 38.4 °F 28.9 °F 60% 30.05 in - SE 5.8 mph - N/A   Clear
9:53 AM 48.9 °F - 24.1 °F 38% 30.03 in 10.0 mi West 11.5 mph - N/A   Clear
10:53 AM 52.0 °F - 23.0 °F 32% 30.01 in 10.0 mi WNW 16.1 mph 20.7 mph N/A   Clear
11:53 AM 55.0 °F - 21.9 °F 28% 30.00 in 10.0 mi West 12.7 mph 28.8 mph N/A   Scattered Clouds
12:53 PM 55.0 °F - 21.9 °F 28% 30.02 in 10.0 mi West 12.7 mph 24.2 mph N/A   Scattered Clouds
1:53 PM 54.0 °F - 21.9 °F 29% 29.99 in 10.0 mi WSW 16.1 mph 21.9 mph N/A   Scattered Clouds
2:53 PM 57.9 °F - 21.0 °F 24% 29.96 in 10.0 mi West 13.8 mph 18.4 mph N/A   Partly Cloudy
3:53 PM 57.9 °F - 19.0 °F 22% 29.94 in 10.0 mi Variable 5.8 mph 20.7 mph N/A   Clear
4:53 PM 59.0 °F - 18.0 °F 20% 29.93 in 10.0 mi West 13.8 mph - N/A   Clear
5:53 PM 57.0 °F - 19.0 °F 23% 29.94 in 10.0 mi West 10.4 mph 17.3 mph N/A   Clear
6:53 PM 53.1 °F - 19.9 °F 27% 29.95 in 10.0 mi SW 11.5 mph - N/A   Clear
7:53 PM 48.9 °F - 21.9 °F 35% 29.94 in 10.0 mi SW 13.8 mph - N/A   Clear
8:53 PM 46.9 °F - 21.9 °F 37% 29.92 in 10.0 mi SSW 11.5 mph - N/A   Clear
9:53 PM 46.9 °F - 21.9 °F 37% 29.89 in 10.0 mi SSW 9.2 mph - N/A   Clear
10:53 PM 46.9 °F - 24.1 °F 41% 29.86 in 10.0 mi SSW 10.4 mph - N/A   Partly Cloudy
11:53 PM 46.0 °F 40.6 °F 24.1 °F 42% 29.83 in 10.0 mi SSW 11.5 mph - N/A   Clear